Regional Weather Roundup
Issued by NWS

Home | Current Version | Previous Version | Text Only | Print | Product List | Glossary On
Versions: 1 2 3 4 5 6 7 8 9 10 11 12 13 14 15 16 17 18 19 20 21 22 23 24 25 26 27 28 29 30 31 32 33 34 35 36 37 38 39 40 41 42 43 44 45 46 47 48 49 50
000
ASUS43 KLSX 252207
RWRMO

WEATHER SUMMARY FOR MISSOURI
NATIONAL WEATHER SERVICE SPRINGFIELD MO
500 PM CDT FRI JUL 25 2014

NOTE: "FAIR" INDICATES FEW OR NO CLOUDS BELOW 12,000 FEET WITH NO
       SIGNIFICANT WEATHER AND/OR OBSTRUCTIONS TO VISIBILITY.
       CURRENT SKY AND/OR WEATHER CONDITIONS ARE NOT AVAILABLE FOR
       CHILLICOTHE AND FARMINGTON.

MOZ001>031-035>038-043-044-053-054-252300-
...NORTHERN AND WESTERN MISSOURI...

CITY           SKY/WX    TMP DP  RH WIND       PRES   REMARKS
KANSAS CTY INT MOSUNNY   95  73  48 S18       29.78S HX 104
KANSAS C DTWN  LGT RAIN  98  70  40 SW23G29   29.76F HX 105
LEE`S SUMMIT   SUNNY     93  72  50 S16G23    29.81F HX 101
ST JOSEPH      MOSUNNY   95  75  52 S17G23    29.72F HX 107
CHILLICOTHE      N/A     91  75  59 S15G24    29.78F HX 101
KIRKSVILLE     MOSUNNY   78  67  68 SE13      29.84F

$$
MOZ066>068-077>081-088>096-101>105-252300-
...SOUTHWEST MISSOURI...

CITY           SKY/WX    TMP DP  RH WIND       PRES   REMARKS
SPRINGFIELD    SUNNY     92  67  43 S13       29.93F HX  95
JOPLIN         SUNNY     93  70  46 S17       29.89F HX  99

$$
MOZ032>034-039>042-045>050-055>058-069>072-252300-
...CENTRAL MISSOURI...

CITY           SKY/WX    TMP DP  RH WIND       PRES   REMARKS
COLUMBIA       PTSUNNY   87  70  56 S17G24    29.85F HX  92
JEFFERSON CITY PTSUNNY   89  70  53 S12       29.84F HX  94
ROLLA          MOSUNNY   87  66  49 S13G21    29.90F
SEDALIA        MOSUNNY   93  70  46 S18G29    29.84F HX  99
WHITEMAN AFB   MOSUNNY   93  68  43 SW20      29.82F HX  97
OSAGE BEACH    SUNNY     93  70  46 S13       29.88F HX  99

$$
MOZ051-052-059>065-252300-
...EAST CENTRAL MISSOURI...

CITY           SKY/WX    TMP DP  RH WIND       PRES   REMARKS
ST LOUIS INTL  PTSUNNY   79  62  56 S16G23    29.91F
SPIRIT OF STL  PTSUNNY   78  62  57 S12G21    29.89F
ST CHARLES     MOSUNNY   77  62  59 S18G28    29.89F

$$
MOZ072>076-082>087-097>100-106>115-252300-
...SOUTH CENTRAL AND SOUTHEAST MISSOURI...

CITY           SKY/WX    TMP DP  RH WIND       PRES   REMARKS
CAPE GIRARDEAU PTSUNNY   77  64  64 E8        29.98F
FARMINGTON     CLOUDY    79  63  57 S16G22    29.98F
POPLAR BLUFF   PTSUNNY   81  63  54 E5        29.99F HAZE
WEST PLAINS    SUNNY     85  66  53 S10G17    30.00F

$$



USA.gov is the U.S. government's official web portal to all federal, state and local government web resources and services.